Weather History for Des Moines, IA

Change the Weather History Date:

Monday, April 1, 2013

  Actual Average Record
Temperature  
Mean Temperature 33 °F 46 °F  
Max Temperature 41 °F 57 °F 87 °F (2003)
Min Temperature 24 °F 36 °F 11 °F (1881)
Degree Days  
Heating Degree Days 32 19  
Month to date heating degree days 32 19  
Since 1 July heating degree days 5361 5646  
Cooling Degree Days 0 0  
Month to date cooling degree days 0 0  
Year to date cooling degree days 0 1  
Moisture  
Dew Point 15 °F    
Average Humidity 50    
Maximum Humidity 68    
Minimum Humidity 32    
Precipitation  
Precipitation 0.00 in 0.09 in 0.96 in (1920)
Month to date precipitation 0.00 0.09  
Year to date precipitation 4.52 4.67  
Snow  
Snow 0.00 in 0.10 in 4.50 in (1979)
Month to date snowfall 0.0 0.1  
Since 1 July snowfall 48.3 33.6  
Snow Depth 0.00 in    
Sea Level Pressure  
Sea Level Pressure 30.27 in    
Wind  
Wind Speed 10 mph (NNW)    
Max Wind Speed 20 mph    
Max Gust Speed 25 mph    
Visibility 10 miles    
Events      
T = Trace of Precipitation, MM = Missing Value Source: NWS Daily Summary

Daily Weather History Graph

Daily Weather History Graph

Search for Another Location

Airport:

Trip Planner

Search our weather history database for the weather conditions in past years. The results will help you decide how hot, cold, wet, or windy it might be!

Date:

Astronomy

Apr. 01, 2013 Rise Set
Actual Time 6:57 AM CDT 7:40 PM CDT
Civil Twilight 6:29 AM CDT 8:08 PM CDT
Nautical Twilight 5:56 AM CDT 8:41 PM CDT
Astronomical Twilight 5:21 AM CDT 9:15 PM CDT
Moon 12:52 AM CDT (4/1) 10:41 AM CDT (4/1)
Length of Visible Light 13h 39m
Length of Day
12h 43m
Waning Gibbous, 67% of the Moon is Illuminated
Apr 1
Waning Gibbous
Apr 2
Last Quarter
Apr 10
New
Apr 18
First Quarter
Apr 25
Full

Hourly Weather History & Observations

Time (CDT) Temp. Windchill Dew Point Humidity Pressure Visibility Wind Dir Wind Speed Gust Speed Precip Events Conditions
12:54 AM 33.1 °F 23.9 °F 16.0 °F 50% 30.12 in 10.0 mi North 12.7 mph - N/A   Mostly Cloudy
1:54 AM 30.0 °F 20.0 °F 18.0 °F 61% 30.15 in 10.0 mi NNW 12.7 mph - N/A   Partly Cloudy
2:54 AM 28.0 °F 18.1 °F 17.1 °F 63% 30.17 in 10.0 mi NNW 11.5 mph - N/A   Partly Cloudy
3:54 AM 27.0 °F 16.7 °F 17.1 °F 66% 30.18 in 10.0 mi North 11.5 mph - N/A   Clear
4:54 AM 26.1 °F 15.0 °F 16.0 °F 66% 30.20 in 10.0 mi North 12.7 mph - N/A   Partly Cloudy
5:54 AM 25.0 °F 14.8 °F 15.1 °F 66% 30.23 in 10.0 mi North 10.4 mph - N/A   Partly Cloudy
6:54 AM 24.1 °F 13.1 °F 15.1 °F 69% 30.26 in 10.0 mi NNW 11.5 mph - N/A   Partly Cloudy
7:54 AM 25.0 °F 14.8 °F 15.1 °F 66% 30.28 in 10.0 mi NW 10.4 mph - N/A   Partly Cloudy
8:54 AM 27.0 °F 16.1 °F 15.1 °F 61% 30.30 in 10.0 mi NNW 12.7 mph - N/A   Partly Cloudy
9:54 AM 28.9 °F 17.3 °F 14.0 °F 54% 30.31 in 10.0 mi NNW 16.1 mph - N/A   Partly Cloudy
10:54 AM 32.0 °F 23.6 °F 14.0 °F 48% 30.32 in 10.0 mi North 10.4 mph - N/A   Partly Cloudy
11:54 AM 34.0 °F 24.2 °F 14.0 °F 44% 30.32 in 10.0 mi NW 15.0 mph 20.7 mph N/A   Partly Cloudy
12:54 PM 37.0 °F 28.1 °F 14.0 °F 39% 30.32 in 10.0 mi North 15.0 mph 20.7 mph N/A   Partly Cloudy
1:54 PM 37.9 °F 30.0 °F 12.9 °F 36% 30.31 in 10.0 mi NNW 12.7 mph 21.9 mph N/A   Partly Cloudy
2:54 PM 39.9 °F 33.9 °F 14.0 °F 35% 30.29 in 10.0 mi NW 9.2 mph 20.7 mph N/A   Partly Cloudy
3:54 PM 41.0 °F 33.9 °F 14.0 °F 33% 30.29 in 10.0 mi NW 12.7 mph 23.0 mph N/A   Partly Cloudy
4:54 PM 39.9 °F 33.9 °F 14.0 °F 35% 30.29 in 10.0 mi WNW 9.2 mph 19.6 mph N/A   Partly Cloudy
5:54 PM 39.9 °F 34.5 °F 15.1 °F 36% 30.28 in 10.0 mi North 8.1 mph - N/A   Partly Cloudy
6:54 PM 37.9 °F 32.7 °F 15.1 °F 39% 30.28 in 10.0 mi North 6.9 mph - N/A   Partly Cloudy
7:54 PM 35.1 °F 28.6 °F 16.0 °F 46% 30.29 in 10.0 mi North 8.1 mph - N/A   Partly Cloudy
8:54 PM 34.0 °F 28.0 °F 17.1 °F 50% 30.30 in 10.0 mi North 6.9 mph - N/A   Clear
9:54 PM 32.0 °F 28.7 °F 17.1 °F 54% 30.32 in 10.0 mi NNW 3.5 mph - N/A   Clear
10:54 PM 32.0 °F 28.7 °F 17.1 °F 54% 30.32 in 10.0 mi NNW 3.5 mph - N/A   Clear
11:54 PM 30.0 °F 26.5 °F 17.1 °F 59% 30.33 in 10.0 mi WNW 3.5 mph - N/A   Clear